Middlesboro, KY

9:28 PM EST on February 10, 2016 (GMT -0500)
Middlesboro

Weather History for K1A6 - January, 2013

Change the Weather History Date:

Wednesday, January 30, 2013

  Actual Average (KLOZ) Record (KLOZ)
Temperature  
Mean Temperature 55 °F 36 °F  
Max Temperature 71 °F 46 °F 72 °F (2002)
Min Temperature 39 °F 27 °F -13 °F (1966)
Degree Days  
Heating Degree Days 10 29  
Month to date heating degree days 887  
Since 1 July heating degree days 2539  
Cooling Degree Days 0 0  
Month to date cooling degree days 0  
Year to date cooling degree days 0  
Growing Degree Days 5 (Base 50)    
Moisture  
Dew Point 53 °F    
Average Humidity 87    
Maximum Humidity 100    
Minimum Humidity 73    
Precipitation  
Precipitation 1.44 in 0.12 in 1.71 in (2013)
Month to date precipitation 3.41  
Year to date precipitation 3.41  
Sea Level Pressure  
Sea Level Pressure 29.61 in    
Wind  
Wind Speed 6 mph (SSW)    
Max Wind Speed 16 mph    
Max Gust Speed 40 mph    
Visibility 8 miles    
Events Rain    
T = Trace of Precipitation, MM = Missing Value Source: NWS Daily Summary

Daily Weather History Graph

Daily Weather History Graph

Search for Another Location

Airport or City:

Trip Planner

Search our weather history database for the weather conditions in past years. The results will help you decide how hot, cold, wet, or windy it might be!

Date:

Astronomy

Jan. 30, 2013 Rise Set
Actual Time 6:38 AM CST 4:58 PM CST
Civil Twilight 6:10 AM CST 5:26 PM CST
Nautical Twilight 5:39 AM CST 5:57 PM CST
Astronomical Twilight 5:09 AM CST 6:27 PM CST
Moon 8:48 PM CST (1/30) 8:12 AM CST (1/30)
Length of Visible Light 11h 15m
Length of Day
10h 20m
Waning Gibbous, 87% of the Moon is Illuminated
Jan 30
Waning Gibbous
Feb 3
Last Quarter
Feb 10
New
Feb 17
First Quarter
Feb 25
Full

Hourly Weather History & Observations

Time (CST) Temp. Windchill Dew Point Humidity Pressure Visibility Wind Dir Wind Speed Gust Speed Precip Events Conditions
12:15 AM 64.4 °F - 57.2 °F 77% 29.81 in 10.0 mi South 5.8 mph - N/A   Mostly Cloudy
12:35 AM 66.2 °F - 57.2 °F 73% 29.80 in 10.0 mi South 5.8 mph - N/A   Overcast
12:55 AM 66.2 °F - 57.2 °F 73% 29.79 in 10.0 mi South 10.4 mph 16.1 mph N/A   Overcast
1:15 AM 66.2 °F - 59.0 °F 78% 29.77 in 10.0 mi South 6.9 mph - N/A   Overcast
1:35 AM 64.4 °F - 59.0 °F 83% 29.76 in 10.0 mi South 3.5 mph - N/A   Mostly Cloudy
1:55 AM 66.2 °F - 59.0 °F 78% 29.76 in 10.0 mi South 4.6 mph - N/A   Overcast
2:15 AM 66.2 °F - 59.0 °F 78% 29.75 in 10.0 mi South 8.1 mph - N/A   Overcast
2:35 AM 66.2 °F - 59.0 °F 78% 29.74 in 10.0 mi South 6.9 mph - N/A Rain Light Rain
2:55 AM 66.2 °F - 59.0 °F 78% 29.73 in 10.0 mi SW 4.6 mph - N/A   Overcast
3:15 AM 66.2 °F - 59.0 °F 78% 29.71 in 10.0 mi SSE 3.5 mph - N/A   Overcast
3:35 AM 66.2 °F - 60.8 °F 83% 29.70 in 10.0 mi SSE 3.5 mph - N/A   Overcast
3:55 AM 66.2 °F - 60.8 °F 83% 29.68 in 10.0 mi South 6.9 mph 18.4 mph N/A   Overcast
4:15 AM 66.2 °F - 60.8 °F 83% 29.67 in 10.0 mi SSW 8.1 mph - N/A Rain Light Rain
4:35 AM 64.4 °F - 62.6 °F 94% 29.66 in 7.0 mi SSW 9.2 mph 17.3 mph 0.04 in Rain Heavy Rain
4:55 AM 66.2 °F - 60.8 °F 83% 29.63 in 10.0 mi South 8.1 mph - N/A   Overcast
5:15 AM 68.0 °F - 60.8 °F 78% 29.62 in 10.0 mi SSW 16.1 mph 24.2 mph N/A   Overcast
5:35 AM 69.8 °F - 60.8 °F 73% 29.62 in 10.0 mi SSW 9.2 mph 17.3 mph N/A   Overcast
5:55 AM 69.8 °F - 60.8 °F 73% 29.61 in 10.0 mi South 13.8 mph 25.3 mph N/A Rain Light Rain
6:15 AM 71.6 °F - 62.6 °F 73% 29.62 in 10.0 mi SSW 12.7 mph 29.9 mph N/A   Overcast
6:35 AM 69.8 °F - 62.6 °F 78% 29.62 in 10.0 mi SSW 13.8 mph 24.2 mph N/A Rain Light Rain
6:55 AM 69.8 °F - 62.6 °F 78% 29.63 in 10.0 mi SSW 9.2 mph 25.3 mph N/A Rain Light Rain
7:15 AM 69.8 °F - 62.6 °F 78% 29.62 in 10.0 mi SSW 11.5 mph 17.3 mph N/A   Overcast
7:35 AM 69.8 °F - 62.6 °F 78% 29.61 in 10.0 mi SSE 8.1 mph 18.4 mph N/A Rain Light Rain
7:55 AM 60.8 °F - 59.0 °F 94% 29.68 in 5.0 mi Calm Calm - 0.05 in Rain Rain
8:15 AM 60.8 °F - 59.0 °F 94% 29.68 in 2.0 mi Calm Calm - 0.15 in Rain Heavy Rain
8:35 AM 59.0 °F - 57.2 °F 94% 29.69 in 5.0 mi SSE 3.5 mph - 0.23 in Rain Heavy Rain
8:55 AM 57.2 °F - 57.2 °F 100% 29.67 in 4.0 mi ESE 3.5 mph - 0.03 in Rain Heavy Rain
9:15 AM 57.2 °F - 57.2 °F 100% 29.66 in 2.0 mi Calm Calm - 0.10 in Rain Heavy Rain
9:35 AM 57.2 °F - 57.2 °F 100% 29.66 in 4.0 mi Calm Calm - 0.16 in Rain Heavy Rain
9:55 AM 57.2 °F - 57.2 °F 100% 29.65 in 10.0 mi Calm Calm - N/A Rain Light Rain
10:15 AM 57.2 °F - 57.2 °F 100% 29.65 in 4.0 mi Calm Calm - 0.02 in Rain Rain
10:35 AM 57.2 °F - 57.2 °F 100% 29.62 in 2.0 mi Calm Calm - 0.10 in Rain Heavy Rain
10:55 AM - - - N/A% 29.63 in 2.0 mi Calm Calm - 0.04 in Rain Heavy Rain
11:15 AM 57.2 °F - 57.2 °F 100% 29.61 in 3.0 mi Calm Calm - 0.13 in Rain Heavy Rain
11:35 AM 57.2 °F - 57.2 °F 100% 29.60 in 4.0 mi Calm Calm - 0.18 in Rain Heavy Rain
11:55 AM 57.2 °F - 57.2 °F 100% 29.58 in 3.0 mi Calm Calm - 0.05 in Rain Heavy Rain
12:15 PM 57.2 °F - 57.2 °F 100% 29.57 in 3.0 mi Calm Calm - 0.12 in Rain Heavy Rain
12:35 PM 57.2 °F - 55.4 °F 94% 29.56 in 3.0 mi South 3.5 mph - 0.19 in Rain Heavy Rain
12:55 PM 57.2 °F - 57.2 °F 100% 29.54 in 4.0 mi Calm Calm - 0.04 in Rain Heavy Rain
1:15 PM 57.2 °F - 57.2 °F 100% 29.53 in 10.0 mi South 5.8 mph - 0.08 in Rain Rain
1:35 PM 57.2 °F - 57.2 °F 100% 29.51 in 7.0 mi South 3.5 mph - 0.13 in Rain Rain
1:55 PM 57.2 °F - 57.2 °F 100% 29.51 in 7.0 mi Calm Calm - 0.02 in Rain Rain
2:15 PM 57.2 °F - 57.2 °F 100% 29.51 in 10.0 mi SSW 9.2 mph - 0.04 in Rain Rain
2:35 PM 57.2 °F - 57.2 °F 100% 29.49 in 7.0 mi South 8.1 mph - 0.08 in Rain Heavy Rain
3:15 PM 57.2 °F - 55.4 °F 94% 29.51 in 7.0 mi WSW 5.8 mph - 0.10 in Rain Heavy Rain
3:35 PM 55.4 °F - 50.0 °F 82% 29.55 in 10.0 mi WSW 8.1 mph 19.6 mph 0.13 in Rain Rain
3:55 PM 53.6 °F - 46.4 °F 77% 29.56 in 10.0 mi SW 8.1 mph - 0.02 in Rain Rain
4:15 PM 53.6 °F - 48.2 °F 82% 29.54 in 7.0 mi Calm Calm - 0.06 in Rain Rain
4:35 PM 51.8 °F - 46.4 °F 82% 29.56 in 10.0 mi SSW 11.5 mph 17.3 mph 0.07 in Rain Light Rain
4:55 PM 51.8 °F - 46.4 °F 82% 29.51 in 10.0 mi SSW 4.6 mph - N/A Rain Light Rain
5:15 PM 51.8 °F - 46.4 °F 82% 29.49 in 10.0 mi South 8.1 mph - N/A   Overcast
5:35 PM 51.8 °F - 48.2 °F 88% 29.51 in 1.0 mi SSW 8.1 mph - N/A   Overcast
5:55 PM 51.8 °F - 48.2 °F 88% 29.53 in 10.0 mi South 13.8 mph 19.6 mph N/A Rain Light Rain
6:15 PM 51.8 °F - 46.4 °F 82% 29.50 in 10.0 mi South 12.7 mph 24.2 mph N/A Rain Light Rain
6:35 PM 50.0 °F - 46.4 °F 87% 29.51 in 10.0 mi North - - N/A Rain Rain
6:55 PM 50.0 °F - 46.4 °F 87% 29.52 in 10.0 mi SSW 8.1 mph 18.4 mph N/A Rain Light Rain
7:15 PM 50.0 °F - 46.4 °F 87% 29.49 in 10.0 mi SSW 9.2 mph - N/A   Light Drizzle
7:35 PM 50.0 °F - 46.4 °F 87% 29.50 in 10.0 mi South 11.5 mph 19.6 mph N/A   Light Drizzle
7:55 PM 50.0 °F - 46.4 °F 87% 29.52 in 10.0 mi SSW 9.2 mph 20.7 mph N/A Rain Light Rain
8:15 PM 48.2 °F - 46.4 °F 93% 29.51 in 7.0 mi North - - N/A Rain Rain
8:35 PM 48.2 °F - 46.4 °F 93% 29.52 in 7.0 mi Calm Calm - 0.04 in Rain Heavy Rain
8:55 PM 48.2 °F - 42.8 °F 82% 29.55 in 7.0 mi Calm Calm 40.3 mph 0.01 in Rain Rain
9:15 PM 46.4 °F 39.8 °F 39.2 °F 76% 29.55 in 10.0 mi West 16.1 mph 34.5 mph 0.01 in Rain Light Rain
9:35 PM 44.6 °F 38.4 °F 39.2 °F 81% 29.56 in 10.0 mi WNW 12.7 mph 28.8 mph 0.01 in Rain Light Rain
9:55 PM 44.6 °F 38.4 °F 39.2 °F 81% 29.57 in 10.0 mi West 12.7 mph 21.9 mph N/A   Light Drizzle
10:15 PM 44.6 °F - 39.2 °F 81% 29.59 in 10.0 mi North - - N/A Rain Light Rain
10:35 PM 42.8 °F 38.6 °F 39.2 °F 87% 29.62 in 7.0 mi NW 6.9 mph 19.6 mph N/A Rain Rain
10:55 PM 41.0 °F 34.7 °F 39.2 °F 93% 29.65 in 5.0 mi WNW 10.4 mph 19.6 mph 0.01 in Rain Rain
11:15 PM 39.2 °F 32.5 °F 37.4 °F 93% 29.67 in 5.0 mi West 10.4 mph 25.3 mph 0.02 in Rain Light Rain
11:35 PM 39.2 °F 33.6 °F 35.6 °F 87% 29.69 in 10.0 mi West 8.1 mph - 0.02 in Rain Light Rain
11:55 PM 39.2 °F - 33.8 °F 81% 29.72 in 10.0 mi North - - N/A Rain Light Rain